Погода в Рогалике

Россия / Ростовская область     48°55′33″N   40°03′05″E
темп.,
°C
ветер,
м/с
пор.,
м/с
влажн.,
%
обл.,
%
осадки,
мм/ч
давл.,
гПа
погр.,
м
17 мая, пн
пн1700:00+18вюв5165799 0.0 1008347
03:00+17вюв61752100 0.0 1007330
06:00+17вюв6185784 0.0 1007404
09:00+22юв8165096 0.0 1007930
12:00+26юв916400 0.0 10071489
15:00+27ююв811425 0.0 10071756
18:00+25ююв465627 0.0 1006283
21:00+19зюз227525 0.0 100722
18 мая, вт
вт1800:00+17зюз3581100 0.0 100879
03:00+15зсз2289100 0.0 100726
06:00+16зюз359099 0.0 1008189
09:00+19зюз557158 0.0 1008734
12:00+20юз556688 0.0 1008993
15:00+18ю5779100 0.5 1009445
18:00+20ююз6868100 0.6 1009695
21:00+16ю3681100 0.6 1009122
19 мая, ср
ср1900:00+14ю3589100 0.0 100999
03:00+12ююз228996 0.0 100921
06:00+14юв248560 0.0 1008115
09:00+19ю576891 0.1 1008848
12:00+17ююз7875100 1.1 1009994
15:00+14ю3593100 3.5 1010397
18:00+16ю4783100 1.1 1009528
21:00+13ююз4118897 1.6 1009342
20 мая, чт
чт2000:00+11ю4109548 0.0 1010304
03:00+10ю4109724 0.0 1009312
06:00+12ю489448 0.0 1009448
09:00+13юз698896 0.3 1010679
12:00+16юз797697 0.3 10111110
15:00+17зюз6127121 0.7 10121381
18:00+19зюз586181 0.1 1012980
21:00+14ююз2381100 0.1 101321
21 мая, пт
пт2100:00+13ююз33896 0.0 101332
03:00+12ююв348637 0.0 101349
06:00+13ююв368523 0.0 1014170
09:00+19юв3564100 0.0 1013590
12:00+23ююв5650100 0.0 10121330
15:00+24юв3449100 0.0 10121095
18:00+22юв246583 0.0 1012269
21:00+18св347697 0.0 101351